DW8016 Weather Reports


time (UTC)temp
F
wind
direction
speed
knots
gust
knots
rain 1hr
in
rain 24hr
in
rain mn
in
humidity
%
barometer
mb
20260901072745 78 237 0.0 0.9 0.00 0.01 0.00 88 1016.5
20260901071755 77 237 0.0 0.0 0.00 0.01 0.00 89 1016.5
20260901070814 77 237 0.0 0.0 0.00 0.01 0.00 89 1016.6
20260901065810 78 237 0.0 0.0 0.00 0.01 0.00 89 1016.6
20260901064828 77 237 0.0 0.0 0.00 0.01 0.00 89 1016.8
20260901063830 78 215 0.0 0.0 0.00 0.01 0.00 90 1016.8
20260901062828 78 215 0.0 0.0 0.00 0.01 0.00 90 1016.9
20260901061754 78 215 0.0 0.9 0.00 0.01 0.00 91 1016.8
20260901060720 78 214 0.0 0.0 0.00 0.01 0.00 91 1016.8
20260901055704 78 214 0.0 2.6 0.00 0.01 0.00 90 1016.9
20260901054632 78 214 0.0 0.0 0.00 0.01 0.00 90 1017.1
20260901053638 78 214 0.0 0.0 0.00 0.01 0.00 89 1017.1
20260901052622 78 214 0.0 0.0 0.00 0.01 0.00 89 1017.4
20260901051614 78 214 0.0 0.0 0.00 0.01 0.00 89 1017.3
20260901050600 78 214 0.0 0.0 0.00 0.01 0.00 89 1017.4
20260901045539 78 214 0.0 0.0 0.00 0.01 0.00 88 1017.5
20260901044527 78 214 0.0 0.0 0.00 0.01 0.00 88 1017.6
20260901043547 78 214 0.0 0.0 0.00 0.01 0.00 88 1017.6
20260901042542 78 214 0.0 0.0 0.00 0.01 0.00 89 1017.8
20260901041538 78 214 0.0 0.0 0.00 0.01 0.00 89 1017.8
20260901040512 77 214 0.0 0.0 0.00 0.01 0.00 90 1017.8
20260901035449 77 214 0.0 1.7 0.00 0.01 0.01 90 1017.8
20260901034502 77 214 0.0 0.0 0.00 0.01 0.01 91 1017.8
20260901033432 77 214 0.0 0.0 0.00 0.01 0.01 90 1017.7
20260901032425 77 214 0.0 0.0 0.00 0.01 0.01 89 1017.8
20260901030301 78 214 0.0 0.0 0.00 0.01 0.01 88 1017.9
20260901025249 78 214 0.0 0.0 0.00 0.01 0.01 87 1017.8
20260901024313 79 214 0.0 0.0 0.00 0.01 0.01 86 1017.9
20260901023330 79 214 0.0 0.0 0.00 0.01 0.01 86 1017.8
20260901022310 79 214 0.0 0.0 0.00 0.01 0.01 86 1017.8
20260901020202 80 214 0.0 0.0 0.00 0.01 0.01 85 1017.7
20260901015212 80 214 0.0 2.6 0.00 0.01 0.01 85 1017.8
20260901014140 80 182 0.0 2.6 0.00 0.01 0.01 85 1017.6
20260901013145 79 177 0.0 0.0 0.00 0.01 0.01 85 1017.7
20260901012152 79 177 0.0 0.0 0.00 0.01 0.01 85 1017.7
20260901010023 80 177 0.0 0.0 0.00 0.01 0.01 83 1017.5
20260901002856 80 177 0.0 2.6 0.00 0.13 0.01 82 1017.3
20260901001851 81 0 0.0 0.0 0.00 0.34 0.01 81 1017.1
20260901000822 82 0 0.0 0.0 0.00 0.63 0.01 79 1017.2
20260831235836 83 0 0.0 0.0 0.00 0.93 0.01 78 1017.3
20260831234806 83 0 0.0 0.0 0.00 1.12 0.01 78 1017.2
20260831233751 83 0 0.0 0.0 0.00 1.12 0.01 76 1017.1
20260831232737 84 0 0.0 0.0 0.00 1.12 0.01 77 1017.2
20260831231727 84 0 0.0 0.0 0.00 1.12 0.01 75 1017.2
20260831230740 84 0 0.0 0.0 0.00 1.12 0.01 75 1017.2
20260831224556 84 0 0.0 0.0 0.00 1.12 0.01 75 1017.5
20260831222430 84 0 0.0 0.0 0.00 1.12 0.01 75 1017.8
20260831221429 84 0 0.0 0.0 0.00 1.12 0.01 73 1018.0
20260831220354 84 0 0.0 0.0 0.00 1.12 0.01 73 1017.9
20260831214155 84 0 0.0 0.0 0.00 1.12 0.01 74 1017.9
20260831213137 84 0 0.0 0.0 0.00 1.12 0.01 76 1017.9
20260831212134 84 0 0.0 0.0 0.00 1.12 0.01 76 1017.9
20260831211135 84 0 0.0 0.0 0.00 1.12 0.01 74 1017.8
20260831210125 84 0 0.0 0.0 0.00 1.12 0.01 74 1017.8
20260831204001 85 0 0.0 0.0 0.00 1.12 0.01 72 1017.8
20260831202936 85 0 0.0 0.0 0.00 1.12 0.01 72 1017.8
20260831201923 85 0 0.0 0.0 0.00 1.12 0.01 72 1017.9
20260831200936 85 0 0.0 0.0 0.00 1.12 0.01 71 1017.9
20260831195952 85 0 0.0 0.0 0.00 1.12 0.01 73 1017.9
20260831194920 84 0 0.0 0.0 0.00 1.12 0.01 69 1017.8
20260831191646 85 0 0.0 0.0 0.00 1.12 0.01 69 1018.3
20260831190656 85 0 0.0 0.9 0.00 1.12 0.01 70 1018.4
20260831184515 86 0 0.0 0.0 0.00 1.12 0.01 68 1018.4
20260831183449 86 0 0.0 0.0 0.00 1.12 0.01 70 1018.5
20260831180224 88 98 0.0 0.9 0.00 1.12 0.01 66 1018.4
20260831175220 88 94 0.0 0.0 0.00 1.12 0.01 65 1018.4
20260831174153 88 95 0.0 0.0 0.00 1.12 0.01 65 1018.6
20260831173210 88 72 0.0 3.5 0.00 1.12 0.01 66 1018.6
20260831172217 88 88 0.0 0.0 0.00 1.12 0.01 66 1018.8
20260831171217 87 94 0.0 0.0 0.00 1.12 0.01 66 1018.7
20260831170212 86 112 0.9 0.0 0.00 1.12 0.01 67 1018.7
20260831165209 86 77 0.0 3.5 0.00 1.12 0.01 70 1019.1
20260831164157 86 53 0.0 0.0 0.00 1.12 0.01 71 1019.0
20260831163137 85 5 0.0 0.0 0.00 1.12 0.01 71 1019.2
20260831162145 85 5 0.0 0.9 0.00 1.12 0.01 72 1019.4
20260831161126 84 5 0.0 0.0 0.00 1.12 0.01 76 1019.6
20260831160123 84 61 0.0 2.6 0.00 1.12 0.01 76 1019.5
20260831155122 85 115 0.0 2.6 0.00 1.12 0.01 73 1019.2
20260831152939 84 105 0.9 5.2 0.00 1.12 0.01 75 1019.1
20260831145718 81 13 0.0 0.0 0.00 1.12 0.01 83 1019.4
20260831144740 81 83 0.0 0.0 0.00 1.12 0.01 82 1019.4
20260831143751 81 103 0.0 0.0 0.00 1.12 0.01 82 1019.2
20260831142751 82 114 0.0 4.3 0.00 1.12 0.01 81 1019.1
20260831141730 81 120 0.0 3.5 0.00 1.12 0.01 84 1018.9
20260831140742 80 78 0.0 4.3 0.00 1.12 0.01 86 1019.0
20260831135737 78 100 0.0 0.0 0.00 1.12 0.01 89 1019.1
20260831134746 77 96 0.0 0.0 0.00 1.12 0.01 90 1019.2
20260831131540 76 234 0.0 0.0 0.00 1.12 0.01 92 1019.3
20260831130515 75 234 0.0 0.0 0.00 1.12 0.01 93 1019.3
20260831125504 74 234 0.0 0.0 0.00 1.12 0.01 95 1019.3
20260831124525 73 234 0.0 0.0 0.00 1.12 0.01 95 1019.2
20260831123549 73 234 0.0 0.0 0.00 1.12 0.01 95 1019.1
20260831122600 72 234 0.0 0.0 0.00 1.12 0.01 95 1019.0
20260831121615 72 234 0.0 0.9 0.00 1.12 0.01 95 1018.9
20260831120543 72 234 0.0 0.0 0.00 1.12 0.01 95 1019.0
20260831114403 71 234 0.0 0.0 0.00 1.12 0.01 95 1018.9
20260831113338 71 234 0.0 0.0 0.00 1.12 0.01 95 1018.7
20260831112334 71 234 0.0 0.0 0.00 1.12 0.01 95 1018.5
20260831111302 71 234 0.0 0.0 0.00 1.12 0.01 95 1018.5
20260831105148 71 234 0.0 0.0 0.00 1.12 0.01 95 1018.3
20260831104131 71 234 0.0 0.0 0.00 1.12 0.01 95 1018.2
20260831103058 70 234 0.0 0.0 0.00 1.12 0.01 95 1018.0
20260831100936 71 234 0.0 0.0 0.00 1.12 0.01 95 1018.0
20260831095924 71 234 0.0 0.0 0.00 1.12 0.01 95 1018.1
20260831094921 71 234 0.0 0.0 0.00 1.12 0.01 95 1017.9
20260831093917 71 234 0.0 0.0 0.00 1.12 0.01 95 1018.0
20260831092850 71 234 0.0 0.0 0.00 1.12 0.01 95 1017.9
20260831091828 71 234 0.0 0.0 0.00 1.12 0.01 95 1017.9
20260831090832 71 234 0.0 0.0 0.00 1.12 0.01 95 1017.9
20260831085837 71 234 0.0 0.0 0.00 1.12 0.01 95 1017.9
20260831084844 71 234 0.0 0.0 0.00 1.12 0.01 95 1017.8
20260831083843 71 234 0.0 0.0 0.00 1.12 0.01 95 1017.8
20260831082819 71 234 0.0 0.0 0.00 1.12 0.01 95 1017.8
20260831081805 71 234 0.0 0.0 0.00 1.12 0.01 95 1017.8
20260831075604 71 234 0.0 0.0 0.00 1.11 0.00 94 1017.6
20260831074533 71 234 0.0 0.0 0.00 1.11 0.00 94 1017.6
20260831073550 71 234 0.0 0.0 0.00 1.11 0.00 95 1017.6